TUI28S EDDK-EKCH

Flight info

Callsign TUI28S
Flight time N/A
Altitude 37000
Route PODIP9B PODIP Y867 PELUN DCT ANZIV DCT WRB Y867 TOLGI DCT MAKEL N851 GESKA Z711 MONAK
Aircraft B38M/M-SDE1FGHILORVWXY/HB1

Departure

Time 2026-04-25 13:38
Airport Cologne Bonn Airport (EDDK)

Arrival

Time N/A
Airport Copenhagen Kastrup Airport (EKCH)
Time Latitude Longitude Altitude Speed Heading
2026-04-25 13:14 50.87655 7.12230 234 ft 0 kts 52°
2026-04-25 13:24 50.87651 7.12221 237 ft 4 kts 50°
2026-04-25 13:24 50.87632 7.12191 238 ft 4 kts 40°
2026-04-25 13:24 50.87614 7.12163 236 ft 4 kts 67°
2026-04-25 13:24 50.87613 7.12150 237 ft 0 kts 118°
2026-04-25 13:30 50.87603 7.12178 239 ft 3 kts 117°
2026-04-25 13:30 50.87591 7.12214 236 ft 5 kts 117°
2026-04-25 13:30 50.87568 7.12285 237 ft 10 kts 116°
2026-04-25 13:31 50.87457 7.12392 234 ft 12 kts 197°
2026-04-25 13:31 50.87376 7.12352 234 ft 13 kts 198°
2026-04-25 13:31 50.87288 7.12306 238 ft 14 kts 199°
2026-04-25 13:31 50.87193 7.12295 236 ft 14 kts 158°
2026-04-25 13:32 50.87113 7.12396 237 ft 15 kts 137°
2026-04-25 13:32 50.87034 7.12514 238 ft 16 kts 137°
2026-04-25 13:32 50.86946 7.12643 238 ft 19 kts 137°
2026-04-25 13:32 50.86847 7.12784 241 ft 19 kts 138°
2026-04-25 13:33 50.86753 7.12923 244 ft 18 kts 136°
2026-04-25 13:33 50.86656 7.13065 247 ft 21 kts 138°
2026-04-25 13:33 50.86546 7.13224 251 ft 21 kts 137°
2026-04-25 13:33 50.86506 7.13357 252 ft 21 kts 79°
2026-04-25 13:34 50.86588 7.13645 251 ft 22 kts 64°
2026-04-25 13:34 50.86654 7.13859 255 ft 21 kts 64°
2026-04-25 13:34 50.86715 7.14060 257 ft 20 kts 66°
2026-04-25 13:34 50.86670 7.14231 262 ft 17 kts 136°
2026-04-25 13:35 50.86612 7.14319 264 ft 18 kts 136°
2026-04-25 13:35 50.86441 7.14554 272 ft 27 kts 137°
2026-04-25 13:35 50.86310 7.14751 279 ft 25 kts 137°
2026-04-25 13:35 50.86180 7.14940 287 ft 28 kts 137°
2026-04-25 13:36 50.86019 7.15170 295 ft 32 kts 138°
2026-04-25 13:36 50.85856 7.15403 299 ft 31 kts 137°
2026-04-25 13:36 50.85704 7.15627 303 ft 29 kts 137°
2026-04-25 13:36 50.85558 7.15840 308 ft 28 kts 137°
2026-04-25 13:37 50.85419 7.16041 310 ft 26 kts 137°
2026-04-25 13:37 50.85336 7.16281 310 ft 26 kts 86°
2026-04-25 13:37 50.85438 7.16496 311 ft 26 kts 26°
2026-04-25 13:37 50.85606 7.16446 311 ft 26 kts 317°
2026-04-25 13:38 50.85859 7.16079 305 ft 85 kts 317°
2026-04-25 13:38 50.86474 7.15179 283 ft 153 kts 317°
2026-04-25 13:38 50.87355 7.13882 646 ft 181 kts 317°
2026-04-25 13:38 50.88322 7.12529 1695 ft 184 kts 317°
2026-04-25 13:39 50.89432 7.11406 2408 ft 206 kts 341°
2026-04-25 13:39 50.90882 7.11260 3188 ft 206 kts 11°
2026-04-25 13:39 50.92172 7.12205 4147 ft 211 kts 33°
2026-04-25 13:39 50.93353 7.13774 4401 ft 235 kts 48°
2026-04-25 13:40 50.94180 7.16105 4546 ft 251 kts 60°
2026-04-25 13:40 50.94987 7.18653 4704 ft 264 kts 60°
2026-04-25 13:40 50.95825 7.21286 4831 ft 269 kts 60°
2026-04-25 13:40 50.96670 7.23949 4957 ft 271 kts 60°
2026-04-25 13:41 50.97493 7.26649 5002 ft 273 kts 62°
2026-04-25 13:41 50.98305 7.29392 5513 ft 273 kts 62°
2026-04-25 13:41 50.99106 7.32085 6488 ft 276 kts 62°
2026-04-25 13:41 50.99940 7.34887 7277 ft 282 kts 62°
2026-04-25 13:42 51.00782 7.37716 8133 ft 286 kts 62°
2026-04-25 13:42 51.01358 7.39653 8702 ft 288 kts 62°
2026-04-25 13:42 51.02504 7.43507 9823 ft 294 kts 62°
2026-04-25 13:42 51.03383 7.46470 10498 ft 302 kts 62°
2026-04-25 13:43 51.04307 7.49585 10818 ft 321 kts 62°
2026-04-25 13:43 51.04962 7.51797 11008 ft 335 kts 62°
2026-04-25 13:43 51.05983 7.55248 11280 ft 355 kts 62°
2026-04-25 13:43 51.07060 7.58895 11568 ft 372 kts 62°
2026-04-25 13:44 51.08163 7.62637 11972 ft 383 kts 62°
2026-04-25 13:44 51.09312 7.66534 12708 ft 385 kts 62°
2026-04-25 13:44 51.10439 7.70369 13321 ft 391 kts 62°
2026-04-25 13:44 51.11593 7.74307 13970 ft 394 kts 62°
2026-04-25 13:45 51.12756 7.78276 14544 ft 398 kts 62°
2026-04-25 13:45 51.13933 7.82298 15118 ft 402 kts 62°
2026-04-25 13:45 51.15115 7.86347 15699 ft 405 kts 62°
2026-04-25 13:45 51.16306 7.90429 16249 ft 408 kts 62°
2026-04-25 13:46 51.17505 7.94552 16800 ft 411 kts 62°
2026-04-25 13:46 51.18710 7.98700 17355 ft 414 kts 62°
2026-04-25 13:46 51.19922 8.02878 17892 ft 418 kts 62°
2026-04-25 13:46 51.21147 8.07109 18422 ft 421 kts 62°
2026-04-25 13:47 51.22375 8.11359 18870 ft 424 kts 62°
2026-04-25 13:47 51.23614 8.15653 19343 ft 427 kts 62°
2026-04-25 13:47 51.24856 8.19967 19785 ft 430 kts 62°
2026-04-25 13:47 51.26106 8.24318 20236 ft 432 kts 62°
2026-04-25 13:48 51.27364 8.28704 20690 ft 435 kts 62°
2026-04-25 13:48 51.28603 8.33031 20582 ft 426 kts 62°
2026-04-25 13:48 51.29828 8.37318 20239 ft 421 kts 62°
2026-04-25 13:48 51.31030 8.41532 19922 ft 416 kts 62°
2026-04-25 13:49 51.31337 8.42607 19843 ft 420 kts 62°
2026-04-25 13:49 51.31358 8.42681 19842 ft 420 kts 62°
2026-04-25 13:49 51.32478 8.46613 19994 ft 428 kts 62°
2026-04-25 13:49 51.33723 8.50993 20327 ft 434 kts 63°
2026-04-25 13:50 51.34953 8.55329 20827 ft 436 kts 62°
2026-04-25 13:50 51.35964 8.58897 21140 ft 439 kts 62°
2026-04-25 13:50 51.37181 8.63204 21603 ft 441 kts 62°
2026-04-25 13:50 51.38450 8.67701 22019 ft 445 kts 62°
2026-04-25 13:51 51.39725 8.72227 22449 ft 447 kts 62°
2026-04-25 13:51 51.41007 8.76786 22870 ft 450 kts 62°
2026-04-25 13:51 51.41876 8.79886 23139 ft 452 kts 62°
2026-04-25 13:51 51.43170 8.84504 23537 ft 455 kts 62°
2026-04-25 13:52 51.44468 8.89144 23900 ft 458 kts 62°
2026-04-25 13:52 51.45772 8.93819 24242 ft 460 kts 62°
2026-04-25 13:52 51.47063 8.98455 24581 ft 462 kts 62°
2026-04-25 13:52 51.48374 9.03168 24896 ft 465 kts 62°
2026-04-25 13:53 51.49746 9.07863 25213 ft 463 kts 55°
2026-04-25 13:53 51.51686 9.11937 25513 ft 456 kts 40°
2026-04-25 13:53 51.54050 9.15315 25774 ft 456 kts 36°
2026-04-25 13:53 51.54879 9.16424 25868 ft 457 kts 34°
2026-04-25 13:54 51.55546 9.17295 25950 ft 457 kts 34°
2026-04-25 13:54 51.57103 9.19309 26164 ft 458 kts 34°
2026-04-25 13:55 51.59582 9.22537 26475 ft 460 kts 34°
2026-04-25 13:55 51.62070 9.25794 26789 ft 462 kts 34°
2026-04-25 13:55 51.64570 9.29073 27103 ft 464 kts 34°
2026-04-25 13:55 51.67078 9.32366 27403 ft 466 kts 34°
2026-04-25 13:56 51.69593 9.35676 27726 ft 468 kts 34°
2026-04-25 13:56 51.72115 9.38998 28007 ft 469 kts 34°
2026-04-25 13:56 51.74638 9.42326 28365 ft 470 kts 34°
2026-04-25 13:56 51.76878 9.45290 28749 ft 469 kts 34°
2026-04-25 13:57 51.77998 9.46776 28926 ft 468 kts 34°
2026-04-25 13:57 51.80295 9.49811 29339 ft 467 kts 33°
2026-04-25 13:57 51.82838 9.53026 29741 ft 461 kts 27°
2026-04-25 13:58 51.85636 9.55411 30171 ft 453 kts 21°
2026-04-25 13:58 51.88456 9.57730 30470 ft 454 kts 21°
2026-04-25 13:58 51.91269 9.60036 30837 ft 452 kts 20°
2026-04-25 13:58 51.94065 9.62312 31184 ft 450 kts 20°
2026-04-25 13:59 51.96863 9.64588 31519 ft 449 kts 20°
2026-04-25 13:59 51.99657 9.66863 31823 ft 448 kts 20°
2026-04-25 13:59 52.02443 9.69135 32138 ft 447 kts 20°
2026-04-25 13:59 52.05217 9.71400 32449 ft 447 kts 20°
2026-04-25 14:00 52.07056 9.72903 32652 ft 446 kts 20°
2026-04-25 14:00 52.10746 9.75923 33061 ft 445 kts 20°
2026-04-25 14:00 52.12711 9.77532 33308 ft 444 kts 20°
2026-04-25 14:01 52.13428 9.78119 33400 ft 443 kts 20°
2026-04-25 14:01 52.15995 9.80228 33764 ft 440 kts 20°
2026-04-25 14:02 52.18725 9.82472 34070 ft 439 kts 20°
2026-04-25 14:02 52.21455 9.84720 34306 ft 439 kts 20°
2026-04-25 14:02 52.24174 9.86961 34507 ft 439 kts 20°
2026-04-25 14:03 52.28705 9.90703 34847 ft 439 kts 20°
2026-04-25 14:03 52.31201 9.92768 35024 ft 439 kts 20°
2026-04-25 14:03 52.33891 9.94996 35221 ft 439 kts 20°
2026-04-25 14:04 52.35540 9.96363 35372 ft 439 kts 20°
2026-04-25 14:04 52.37268 9.97798 35483 ft 440 kts 20°
2026-04-25 14:04 52.39997 10.00065 35639 ft 440 kts 20°
2026-04-25 14:04 52.41989 10.01722 35785 ft 439 kts 20°
2026-04-25 14:05 52.44418 10.03746 35925 ft 440 kts 20°